Notices

What's New in latest Release from April 7th, 2021:

- Updated Glossary, including Speed of Maximum Gust, and Total Hourly Precipitation

- Updated national and regional climate services offices contacts and prices information

- Addition of station inventory lists for 1981-2010, 1971-2000, and 1961-1990 Normals.

If you haven't already, please take our survey and provide feedback about our website: https://eccc.sondage-survey.ca/f/LanguageSelection.aspx?s=442ca660-fcf1-47c0-95a9-59707d6fd709

Hourly Data Report for October 12, 2017

VICTORIA UNIVERSITY CS
BRITISH COLUMBIA

48°27'25.200" N
123°18'16.600" W
60.10 m
1018598
71783
WYJ

Download Data

Hourly Data (October 2017)
Hourly Data Report for October 12, 2017
TIME
LST
Temp Definition
°C
Dew Point Definition
°C
Rel Hum Definition
%
Precip. Amount Definition
mm

Wind Dir Definition
10's deg

Wind Spd Definition
km/h
Visibility Definition
km
Stn Press Definition
kPa
Hmdx Definition


Wind Chill Definition


Weather Definition


00:00 6.1 5.4 95 0.0 25 3   101.01     LegendNANA
01:00 6.7 5.4 92 0.0 21 4   100.98     LegendNANA
02:00 7.0 5.8 92 0.0 17 4   100.98     LegendNANA
03:00 7.2 5.6 90 0.0 17 4   100.95     LegendNANA
04:00 7.5 6.6 94 0.0 16 4   100.95     LegendNANA
05:00 7.7 6.4 91 0.0 16 3   100.94     LegendNANA
06:00 7.3 6.2 93 0.8 20 3   100.95     LegendNANA
07:00 7.1 6.2 94 0.0 21 2   100.94     LegendNANA
08:00 7.7 6.7 94 0.2 23 2   100.94     LegendNANA
09:00 8.8 6.8 87 0.0 24 5   100.94     LegendNANA
10:00 9.1 6.5 84 0.0 25 5   100.93     LegendNANA
11:00 10.3 6.4 77 0.0 26 4   100.93     LegendNANA
12:00 11.4 7.2 76 0.0 12 2   100.91     LegendNANA
13:00 10.7 6.0 73 0.0 16 6   100.87     LegendNANA
14:00 11.3 6.9 74 0.0 16 5   100.85     LegendNANA
15:00 9.9 6.2 78 0.0 15 3   100.84     LegendNANA
16:00 8.9 7.2 89 1.1 17 4   100.85     LegendNANA
17:00 8.3 7.3 93 1.2 17 5   100.82     LegendNANA
18:00 8.3 7.5 95 0.5 20 2   100.83     LegendNANA
19:00 8.3 7.7 96 1.4 30 2   100.84     LegendNANA
20:00 8.1 7.5 96 0.4 24 2   100.86     LegendNANA
21:00 8.0 7.5 97 0.0 25 4   100.85     LegendNANA
22:00 7.4 6.7 96 0.0 29 6   100.87     LegendNANA
23:00 6.9 6.2 96 0.0 28 4   100.90     LegendNANA

Notes on Data Quality.

Legend

  • E = Estimated
  • M = Missing
  • NA = Not Available*
  • [empty] = Indicates an unobserved value
Date modified: